Weather in Krasniy Kut

Russia / Saratov Oblast     50°57′04″N   46°58′05″E
temp.,
°C
wind,
m/s
gust,
m/s
humid.,
%
clouds,
%
prec.,
mm/h
press.,
hPa
HPBL,
m
19 april, mon
mon1901:00+12n3672100 0.0 1016183
04:00+11n3580100 0.1 1016139
07:00+10ne3783100 0.6 1015294
10:00+11ene5676100 1.7 1016682
13:00+10ene6678100 0.3 1016593
16:00+11ne5678100 0.3 1016566
19:00+11ne61082100 0.0 1016548
22:00+10e71190100 1.0 1017664
20 april, tue
tue2001:00+8e71289100 0.8 1018555
04:00+6e81288100 1.5 1018511
07:00+5e91484100 0.3 1020536
10:00+6ese9147785 0.3 1021628
13:00+6e91572100 0.0 1020684
16:00+8ese101669100 0.0 1020790
19:00+9ese101770100 0.0 1018701
22:00+8ese111978100 1.5 1018715
21 april, wed
wed2101:00+7ese112078100 2.8 1017789
04:00+6se101977100 10.4 1018710
07:00+4se122088100 3.0 1017638
10:00+4se101890100 5.4 1018729
13:00+4se91691100 1.6 1019659
16:00+5sse81393100 1.9 1020567
19:00+5se71292100 0.3 1021441
22:00+5sse51093100 0.3 1022372
22 april, thu
thu2201:00+6se4896100 0.0 1022286
04:00+6se4798100 0.0 1022215
07:00+7se4798100 0.0 1022223
10:00+9sse4792100 0.1 1023368
13:00+13s347094 0.1 1024977
16:00+16s335469 0.7 10231227
19:00+14se4666100 0.7 1024121
22:00+10se59865 1.1 1025255
23 april, fri
fri2301:00+7se478938 0.0 1026179
04:00+7se3590100 0.0 1026121
07:00+7ese358793 0.0 1026182
10:00+10e456982 0.0 1026476
13:00+15e455389 0.0 10241100
16:00+15e4451100 0.0 10231607
19:00+14e4660100 0.1 1023273
22:00+11ese2568100 0.1 1022203